Content
SEND FEEDBACK

Daily
Averages
Monthly
Summary
United States of America

CHICAGO, ILLINOIS


Home > North America > United States > Illinois
Elevation: 674 feet     Latitude: 41 59N     Longitude: 087 54W

WEATHER
 
SELECT A DAY
Number of Records: 194,860;   Date Range: 7/8/95 - 7/26/14
 
SHARE

PRINT THIS DATA

[ ← Previous Day ]
WEATHER ALMANAC - APRIL 4, 2013
[ Next Day → ]
[ °C ]   °F
Weather ElementAverageHighLow
Temperature45 °F57 °F (3:52 pm)27 °F (3:52 am)
Dewpoint22.6 °F32 °F (10:52 pm)17.1 °F (1:52 am)
Humidity44.3 %72 % (3:52 am)25 % (1:52 pm)
Barometer30.13 in30.32 in (1:52 am)29.99 in (5:52 pm)
Wind Speed7 mph12.7 mph (1:52 pm)
Wind Gust20.7 mph (1:52 pm)
Weather ElementAverage
Visibility10 mi
Wind DirectionSSW (207.1 °)

Weather ElementTotal
Precipitation---
Heating Degree Days23 (Base 65)
Averaged from 24 records on April 4, 2013
WEATHER CONDITIONS BREAKOUT
WIND DIRECTION BREAKOUT
WEATHER BY HOUR - APRIL 4, 2013
[ °C ]   °F
Local TimeTemperatureDewpointHumidityBarometerVisibilityWind DirectionWind SpeedGust SpeedPrecipitationEventsConditions
1:52 AM28.0 °F17.1 °F63 %30.32 in10.0 miSSE (160°)3.5 mphClear
2:52 AM28.0 °F18.0 °F66 %30.30 in10.0 miCalmClear
3:52 AM27.0 °F19.0 °F72 %30.28 in10.0 miSSE (160°)3.5 mphClear
4:52 AM28.9 °F19.9 °F69 %30.26 in10.0 miSouth (180°)6.9 mphClear
5:52 AM28.0 °F19.0 °F69 %30.25 in10.0 miCalmClear
6:52 AM28.9 °F18.0 °F64 %30.25 in10.0 miCalmClear
7:52 AM34.0 °F19.9 °F56 %30.25 in10.0 miSouth (190°)5.8 mphClear
8:52 AM39.9 °F19.9 °F45 %30.23 in10.0 miSSW (200°)8.1 mphClear
9:52 AM46.0 °F19.0 °F34 %30.19 in10.0 miSSW (210°)11.5 mphClear
10:52 AM48.9 °F19.0 °F31 %30.17 in10.0 miSW (220°)10.4 mph17.3 mphClear
11:10 AM50.0 °F17.6 °F28 %30.15 in10.0 miWest (260°)11.5 mphClear
11:52 AM51.1 °F18.0 °F27 %30.14 in10.0 miWSW (240°)9.2 mph16.1 mphClear
12:52 PM53.1 °F19.9 °F27 %30.11 in10.0 miWSW (250°)9.2 mphClear
1:52 PM55.0 °F19.9 °F25 %30.08 in10.0 miSW (230°)12.7 mph20.7 mphClear
2:52 PM55.9 °F21.0 °F26 %30.05 in10.0 miWSW (250°)6.9 mph17.3 mphClear
3:52 PM57.0 °F23.0 °F27 %30.02 in10.0 miSW (230°)10.4 mphClear
4:52 PM57.0 °F24.1 °F28 %30.00 in10.0 miWSW (250°)10.4 mph16.1 mphClear
5:52 PM57.0 °F27.0 °F32 %29.99 in10.0 miSW (230°)10.4 mphClear
6:52 PM55.9 °F28.0 °F34 %30.00 in10.0 miWSW (250°)11.5 mph17.3 mphMostly Cloudy
7:52 PM55.0 °F30.0 °F38 %29.99 in10.0 miWest (270°)8.1 mphMostly Cloudy
8:52 PM53.1 °F30.0 °F41 %30.00 in10.0 miWSW (250°)3.5 mphClear
9:52 PM50.0 °F30.0 °F46 %30.00 in10.0 miWest (260°)3.5 mphClear
10:52 PM46.9 °F32.0 °F56 %30.01 in10.0 miNNW (330°)4.6 mphClear
11:52 PM45.0 °F32.0 °F60 %30.03 in10.0 miNorth (350°)6.9 mphClear
Hourly data recorded from KPWK, located miles away from Chicago, Illinois







STORIES FROM OUR PARTNERS